WN4MDN Weather Reports


Display with metric or nautical units.
time (UTC)temp
F
wind
direction
speed
MPH
gust
MPH
rain 1hr
in
rain 24hr
in
rain mn
in
humidity
%
barometer
mb
20260506024033 66 0 0.0 0.0 0.00 0.00 0.00 85 1016.6
20260506023535 67 0 0.0 0.0 0.00 0.00 0.00 85 1016.5
20260506023052 67 0 0.0 0.0 0.00 0.00 0.00 85 1016.4
20260506022534 67 0 0.0 0.0 0.00 0.00 0.00 85 1016.3
20260506022033 67 0 0.0 0.0 0.00 0.00 0.00 84 1016.2
20260506021547 68 0 0.0 0.0 0.00 0.00 0.00 84 1016.3
20260506021031 68 0 0.0 0.0 0.00 0.00 0.00 84 1016.3
20260506020533 68 0 0.0 1.0 0.00 0.00 0.00 84 1016.3
20260506020113 68 0 0.0 2.0 0.00 0.00 0.00 84 1016.4
20260506015534 68 38 1.0 2.0 0.00 0.00 0.00 84 1016.3
20260506015034 68 38 1.0 2.0 0.00 0.00 0.00 84 1016.1
20260506014546 68 38 1.0 2.0 0.00 0.00 0.00 84 1016.1
20260506014031 68 38 1.0 3.0 0.00 0.00 0.00 84 1016.0
20260506013534 69 30 1.0 3.0 0.00 0.00 0.00 83 1016.0
20260506013045 69 28 2.0 3.0 0.00 0.00 0.00 83 1015.8
20260506012534 69 30 1.0 3.0 0.00 0.00 0.00 83 1015.9
20260506012035 69 11 1.0 3.0 0.00 0.00 0.00 83 1015.9
20260506011548 69 11 0.0 3.0 0.00 0.00 0.00 83 1015.9
20260506011035 69 11 1.0 3.0 0.00 0.00 0.00 83 1015.8
20260506010534 69 30 2.0 3.0 0.00 0.00 0.00 82 1015.7
20260506010043 70 30 1.0 4.0 0.00 0.00 0.00 83 1015.7
20260506005534 70 30 2.0 4.0 0.00 0.00 0.00 82 1015.7
20260506005034 70 31 2.0 4.0 0.00 0.00 0.00 82 1015.5
20260506004546 70 41 2.0 3.0 0.00 0.00 0.00 82 1015.4
20260506004034 70 44 2.0 4.0 0.00 0.00 0.00 82 1015.4
20260506003534 71 40 2.0 5.0 0.00 0.00 0.00 81 1015.3
20260506003047 71 65 2.0 5.0 0.00 0.00 0.00 81 1015.2
20260506002532 71 60 3.0 5.0 0.00 0.00 0.00 81 1015.3
20260506002033 71 49 3.0 6.0 0.00 0.00 0.00 80 1015.3
20260506001551 72 36 4.0 6.0 0.00 0.00 0.00 80 1015.2
20260506001032 72 36 3.0 6.0 0.00 0.00 0.00 80 1015.3
20260506000534 72 51 3.0 9.0 0.00 0.00 0.00 80 1015.1
20260506000056 73 40 4.0 9.0 0.00 0.00 0.00 79 1015.1
20260505235534 73 49 4.0 11.0 0.00 0.00 0.00 79 1015.1
20260505235037 73 40 6.0 11.0 0.00 0.00 0.00 78 1015.2
20260505234543 73 46 4.0 11.0 0.00 0.00 0.00 78 1015.2
20260505234034 73 74 5.0 10.0 0.00 0.00 0.00 78 1015.3
20260505233532 74 57 5.0 11.0 0.00 0.00 0.00 78 1015.2
20260505233048 74 28 6.0 13.0 0.00 0.00 0.00 77 1015.2
20260505232534 74 26 7.0 15.0 0.00 0.00 0.00 76 1015.2
20260505232036 74 38 9.0 15.0 0.00 0.00 0.00 76 1015.1
20260505231553 75 42 9.0 14.0 0.00 0.00 0.00 76 1015.1
20260505231034 75 20 8.0 14.0 0.00 0.00 0.00 76 1015.1
20260505230533 75 34 6.0 14.0 0.00 0.00 0.00 76 1015.0
20260505230050 75 31 5.0 14.0 0.00 0.00 0.00 76 1015.1
20260505225534 76 26 9.0 16.0 0.00 0.00 0.00 76 1015.1
20260505225033 76 5 7.0 16.0 0.00 0.00 0.00 76 1015.1
20260505224548 76 27 9.0 15.0 0.00 0.00 0.00 75 1015.1
20260505224034 76 9 10.0 17.0 0.00 0.00 0.00 75 1015.1
20260505223533 76 39 11.0 17.0 0.00 0.00 0.00 75 1015.0
20260505223045 76 55 12.0 17.0 0.00 0.00 0.00 75 1014.9
20260505222537 76 56 8.0 15.0 0.00 0.00 0.00 75 1014.9
20260505222038 76 40 9.0 15.0 0.00 0.00 0.00 75 1014.9
20260505221551 76 12 9.0 16.0 0.00 0.00 0.00 75 1014.9
20260505221035 77 34 10.0 16.0 0.00 0.00 0.00 74 1014.9
20260505220534 77 45 10.0 15.0 0.00 0.00 0.00 74 1014.9
20260505220049 77 40 10.0 15.0 0.00 0.00 0.00 73 1014.9
20260505215537 77 38 9.0 14.0 0.00 0.00 0.00 73 1014.8
20260505215035 77 15 8.0 15.0 0.00 0.00 0.00 72 1014.7
20260505214554 77 13 8.0 16.0 0.00 0.00 0.00 72 1014.7
20260505214032 77 44 10.0 16.0 0.00 0.00 0.00 72 1014.6
20260505213531 78 67 10.0 16.0 0.00 0.00 0.00 71 1014.6
20260505213045 78 42 9.0 16.0 0.00 0.00 0.00 71 1014.6
20260505212532 78 53 11.0 16.0 0.00 0.00 0.00 70 1014.5
20260505212035 79 68 10.0 16.0 0.00 0.00 0.00 70 1014.6
20260505211614 78 26 9.0 15.0 0.00 0.00 0.00 70 1014.6
20260505211035 78 34 9.0 17.0 0.00 0.00 0.00 70 1014.6
20260505210534 78 43 9.0 17.0 0.00 0.00 0.00 70 1014.6
20260505210046 78 76 10.0 15.0 0.00 0.00 0.00 70 1014.6
20260505205535 79 55 10.0 15.0 0.00 0.00 0.00 69 1014.7
20260505205036 78 27 6.0 17.0 0.00 0.00 0.00 70 1014.6
20260505204602 78 20 8.0 17.0 0.00 0.00 0.00 69 1014.6
20260505204032 79 75 12.0 16.0 0.00 0.00 0.00 68 1014.6
20260505203535 79 47 10.0 16.0 0.00 0.00 0.00 68 1014.7
20260505203047 79 92 10.0 16.0 0.00 0.00 0.00 68 1014.7
20260505202535 79 36 8.0 16.0 0.00 0.00 0.00 68 1014.8
20260505202034 78 5 8.0 16.0 0.00 0.00 0.00 69 1014.9
20260505201545 78 40 10.0 16.0 0.00 0.00 0.00 68 1014.8
20260505201034 78 30 7.0 14.0 0.00 0.00 0.00 68 1015.0
20260505200534 78 40 10.0 14.0 0.00 0.00 0.00 68 1014.9
20260505200044 79 44 8.0 14.0 0.00 0.00 0.00 68 1014.9
20260505195534 79 32 8.0 17.0 0.00 0.00 0.00 68 1014.8
20260505195032 78 49 9.0 17.0 0.00 0.00 0.00 68 1014.8
20260505194542 78 49 10.0 16.0 0.00 0.00 0.00 69 1014.8
20260505194035 78 33 9.0 14.0 0.00 0.00 0.00 69 1015.0
20260505193534 78 35 9.0 17.0 0.00 0.00 0.00 68 1015.0
20260505193045 79 47 8.0 17.0 0.00 0.00 0.00 68 1015.0
20260505192534 79 36 10.0 16.0 0.00 0.00 0.00 67 1015.0
20260505192034 79 81 7.0 16.0 0.00 0.00 0.00 67 1015.0
20260505191548 79 42 9.0 14.0 0.00 0.00 0.00 66 1015.0
20260505191034 79 360 7.0 14.0 0.00 0.00 0.00 68 1015.0
20260505190536 79 39 10.0 16.0 0.00 0.00 0.00 67 1015.2
20260505190044 79 61 8.0 16.0 0.00 0.00 0.00 68 1015.4
20260505185533 78 44 10.0 16.0 0.00 0.00 0.00 68 1015.5
20260505185035 79 44 7.0 14.0 0.00 0.00 0.00 67 1015.6
20260505184545 79 30 7.0 12.0 0.00 0.00 0.00 68 1015.8
20260505184032 78 42 8.0 14.0 0.00 0.00 0.00 68 1015.8
20260505183534 78 360 8.0 14.0 0.00 0.00 0.00 68 1015.8
20260505183042 78 20 9.0 15.0 0.00 0.00 0.00 68 1015.8
20260505182534 78 360 8.0 15.0 0.00 0.00 0.00 68 1016.0
20260505182032 79 49 9.0 15.0 0.00 0.00 0.00 67 1015.9
20260505181606 79 34 9.0 14.0 0.00 0.00 0.00 64 1015.9
20260505181036 79 41 7.0 17.0 0.00 0.00 0.00 65 1015.9
20260505180534 79 355 7.0 17.0 0.00 0.00 0.00 66 1016.0
20260505180101 80 46 7.0 14.0 0.00 0.00 0.00 65 1016.0
20260505175535 79 59 8.0 14.0 0.00 0.00 0.00 67 1016.0
20260505175032 79 51 8.0 16.0 0.00 0.00 0.00 67 1016.0
20260505174549 79 36 9.0 16.0 0.00 0.00 0.00 66 1016.1
20260505174034 79 63 9.0 16.0 0.00 0.00 0.00 68 1016.1
20260505173533 78 30 7.0 17.0 0.00 0.00 0.00 68 1016.1
20260505173045 79 71 9.0 17.0 0.00 0.00 0.00 67 1016.2
20260505172533 80 42 9.0 14.0 0.00 0.00 0.00 66 1016.1
20260505172034 79 55 9.0 15.0 0.00 0.00 0.00 66 1016.1
20260505171551 79 59 8.0 15.0 0.00 0.00 0.00 68 1016.0
20260505171034 80 63 8.0 13.0 0.00 0.00 0.00 66 1016.0
20260505170533 79 104 7.0 16.0 0.00 0.00 0.00 67 1015.9
20260505170044 79 44 9.0 16.0 0.00 0.00 0.00 65 1016.0
20260505165537 79 77 11.0 17.0 0.00 0.00 0.00 67 1016.0
20260505165034 79 34 10.0 17.0 0.00 0.00 0.00 67 1016.0
20260505164541 79 38 9.0 15.0 0.00 0.00 0.00 68 1016.0
20260505164033 79 20 9.0 15.0 0.00 0.00 0.00 67 1016.1
20260505163531 78 66 9.0 14.0 0.00 0.00 0.00 68 1016.2
20260505163048 78 46 9.0 14.0 0.00 0.00 0.00 66 1016.3
20260505162532 79 44 6.0 16.0 0.00 0.00 0.00 65 1016.3
20260505162034 79 76 8.0 16.0 0.00 0.00 0.00 69 1016.4
20260505161550 78 73 10.0 16.0 0.00 0.00 0.00 69 1016.4
20260505161034 78 60 7.0 13.0 0.00 0.00 0.00 70 1016.3
20260505160535 78 58 9.0 13.0 0.00 0.00 0.00 71 1016.4
20260505153046 78 86 8.0 14.0 0.00 0.00 0.00 68 1016.4
20260505152534 78 74 9.0 16.0 0.00 0.00 0.00 69 1016.4
20260505152033 78 13 8.0 16.0 0.00 0.00 0.00 70 1016.3
20260505151548 78 24 9.0 15.0 0.00 0.00 0.00 69 1016.2
20260505151034 78 24 9.0 15.0 0.00 0.00 0.00 68 1016.3
20260505150533 78 5 9.0 15.0 0.00 0.00 0.00 69 1016.3
20260505140534 77 64 9.0 15.0 0.00 0.00 0.00 73 1016.0
20260505125034 72 360 8.0 14.0 0.00 0.00 0.00 83 1015.7
20260505124546 71 29 6.0 11.0 0.00 0.00 0.00 84 1015.7
20260505124037 71 42 6.0 11.0 0.00 0.00 0.00 85 1015.7
20260505123538 70 23 6.0 10.0 0.00 0.00 0.00 86 1015.9
20260505123050 70 355 5.0 10.0 0.00 0.00 0.00 87 1016.0
20260505122534 69 29 5.0 10.0 0.00 0.00 0.00 88 1015.8
20260505122034 69 22 3.0 8.0 0.00 0.00 0.00 90 1016.0
20260505121546 68 17 0.0 7.0 0.00 0.00 0.00 92 1015.8
20260505121035 67 0 0.0 1.0 0.00 0.00 0.00 93 1015.7
20260505120534 66 0 0.0 0.0 0.00 0.00 0.00 93 1015.7
20260505120104 66 0 0.0 4.0 0.00 0.00 0.00 94 1015.7
20260505115533 65 0 0.0 4.0 0.00 0.00 0.00 94 1015.6
20260505115031 64 349 0.0 3.0 0.00 0.00 0.00 94 1015.4
20260505114554 63 0 0.0 0.0 0.00 0.00 0.00 94 1015.4
20260505114033 63 0 0.0 0.0 0.00 0.00 0.00 94 1015.4
20260505113533 62 0 0.0 0.0 0.00 0.00 0.00 94 1015.5
20260505113041 62 0 0.0 2.0 0.00 0.00 0.00 94 1015.3
20260505112533 61 0 0.0 2.0 0.00 0.00 0.00 94 1015.1
20260505112034 61 338 1.0 3.0 0.00 0.00 0.00 94 1015.0
20260505111547 61 347 1.0 3.0 0.00 0.00 0.00 94 1014.9
20260505111036 61 0 0.0 0.0 0.00 0.00 0.00 94 1014.9
20260505110534 61 0 0.0 0.0 0.00 0.00 0.00 94 1015.0
20260505110106 61 0 0.0 1.0 0.00 0.00 0.00 93 1015.0
20260505102036 60 0 0.0 0.0 0.00 0.00 0.00 93 1014.6
20260505101543 60 0 0.0 0.0 0.00 0.00 0.00 93 1014.5
20260505101034 60 0 0.0 0.0 0.00 0.00 0.00 93 1014.6
20260505100534 60 0 0.0 0.0 0.00 0.00 0.00 93 1014.5
20260505100043 60 0 0.0 3.0 0.00 0.00 0.00 93 1014.4
20260505095534 60 0 0.0 3.0 0.00 0.00 0.00 93 1014.4
20260505095035 60 316 1.0 3.0 0.00 0.00 0.00 93 1014.3
20260505094547 60 346 0.0 2.0 0.00 0.00 0.00 93 1014.1
20260505094034 60 0 0.0 1.0 0.00 0.00 0.00 93 1014.1
20260505093534 60 0 0.0 1.0 0.00 0.00 0.00 93 1014.0
20260505093049 60 0 0.0 0.0 0.00 0.00 0.00 93 1014.1
20260505092534 60 0 0.0 1.0 0.00 0.00 0.00 93 1014.0
20260505092035 60 0 0.0 1.0 0.00 0.00 0.00 93 1014.2
20260505091553 60 0 0.0 1.0 0.00 0.00 0.00 93 1014.1
20260505091036 60 0 0.0 2.0 0.00 0.00 0.00 93 1014.2
20260505090533 60 0 0.0 2.0 0.00 0.00 0.00 93 1014.2
20260505090045 60 0 0.0 0.0 0.00 0.00 0.00 92 1014.1
20260505085534 60 0 0.0 0.0 0.00 0.00 0.00 93 1014.1
20260505085035 60 0 0.0 0.0 0.00 0.00 0.00 93 1014.1
20260505084551 60 0 0.0 0.0 0.00 0.00 0.00 93 1014.0
20260505084057 60 0 0.0 0.0 0.00 0.00 0.00 93 1014.1
20260505083538 60 0 0.0 0.0 0.00 0.00 0.00 93 1014.1
20260505083056 60 0 0.0 0.0 0.00 0.00 0.00 93 1014.0
20260505082534 60 0 0.0 1.0 0.00 0.00 0.00 93 1014.0
20260505082034 60 0 0.0 1.0 0.00 0.00 0.00 93 1013.9
20260505081545 60 0 0.0 1.0 0.00 0.00 0.00 93 1014.0
20260505081035 60 0 0.0 0.0 0.00 0.00 0.00 92 1014.0
20260505080533 60 0 0.0 0.0 0.00 0.00 0.00 92 1013.7
20260505080045 61 0 0.0 0.0 0.00 0.00 0.00 92 1013.9
20260505075535 61 0 0.0 0.0 0.00 0.00 0.00 93 1013.9
20260505075033 61 0 0.0 0.0 0.00 0.00 0.00 93 1013.8
20260505074546 60 0 0.0 1.0 0.00 0.00 0.00 93 1013.9
20260505074031 60 0 0.0 1.0 0.00 0.00 0.00 92 1014.0
20260505073533 61 0 0.0 1.0 0.00 0.00 0.00 92 1014.2
20260505073055 61 0 0.0 0.0 0.00 0.00 0.00 92 1014.2
20260505072534 61 0 0.0 0.0 0.00 0.00 0.00 92 1014.3
20260505072034 61 0 0.0 0.0 0.00 0.00 0.00 92 1014.4
20260505071546 61 0 0.0 0.0 0.00 0.00 0.00 92 1014.5
20260505071034 61 0 0.0 0.0 0.00 0.00 0.00 92 1014.4
20260505070534 61 0 0.0 0.0 0.00 0.00 0.00 92 1014.4
20260505070050 61 0 0.0 0.0 0.00 0.00 0.00 92 1014.6
20260505065534 61 0 0.0 0.0 0.00 0.00 0.00 92 1014.6
20260505065031 61 0 0.0 0.0 0.00 0.00 0.00 92 1014.5
20260505064612 61 0 0.0 0.0 0.00 0.00 0.00 92 1014.5
20260505064033 61 0 0.0 0.0 0.00 0.00 0.00 92 1014.6
20260505063531 61 0 0.0 0.0 0.00 0.00 0.00 92 1014.7
20260505063052 61 0 0.0 0.0 0.00 0.00 0.00 92 1014.8
20260505062533 61 0 0.0 0.0 0.00 0.00 0.00 92 1014.9
20260505062033 61 0 0.0 0.0 0.00 0.00 0.00 92 1014.9
20260505061542 61 0 0.0 0.0 0.00 0.00 0.00 92 1014.8
20260505061036 61 0 0.0 0.0 0.00 0.00 0.00 92 1014.9
20260505060533 61 0 0.0 0.0 0.00 0.00 0.00 92 1014.9
20260505060052 61 0 0.0 2.0 0.00 0.00 0.00 92 1015.0
20260505055533 62 0 0.0 3.0 0.00 0.00 0.00 91 1015.1
20260505055034 62 0 1.0 4.0 0.00 0.00 0.00 91 1015.3
20260505054552 62 309 2.0 4.0 0.00 0.00 0.00 92 1015.4
20260505054034 61 30 1.0 2.0 0.00 0.00 0.00 91 1015.3
20260505053534 61 0 0.0 2.0 0.00 0.00 0.00 91 1015.3
20260505053047 61 0 0.0 1.0 0.00 0.00 0.00 91 1015.2
20260505052534 62 0 0.0 2.0 0.00 0.00 0.00 91 1015.1
20260505052034 62 0 0.0 2.0 0.00 0.00 0.00 91 1015.0
20260505051545 62 30 1.0 2.0 0.00 0.00 0.00 91 1015.1
20260505051032 62 30 1.0 2.0 0.00 0.00 0.00 91 1015.2
20260505050534 62 30 1.0 2.0 0.00 0.00 0.00 91 1015.4
20260505041546 63 0 0.0 2.0 0.00 0.00 0.00 90 1015.7
20260505041034 62 30 0.0 2.0 0.00 0.00 0.00 90 1015.5
20260505040536 62 0 0.0 0.0 0.00 0.00 0.00 89 1015.6
20260505040048 63 0 0.0 0.0 0.00 0.00 0.00 89 1015.5
20260505035533 63 0 0.0 0.0 0.00 0.00 0.00 89 1015.5
20260505035033 63 0 0.0 0.0 0.00 0.00 0.00 89 1015.7
20260505034605 63 0 0.0 0.0 0.00 0.00 0.00 89 1015.7
20260505034033 63 0 0.0 1.0 0.00 0.00 0.00 89 1015.7
20260505033536 63 0 0.0 2.0 0.00 0.00 0.00 88 1015.8
20260505033049 63 0 0.0 2.0 0.00 0.00 0.00 88 1015.8
20260505032532 64 0 0.0 2.0 0.00 0.00 0.00 88 1015.8
20260505032034 64 30 1.0 2.0 0.00 0.00 0.00 88 1015.9
20260505031539 64 30 0.0 0.0 0.00 0.00 0.00 88 1015.9
20260505031034 64 0 0.0 0.0 0.00 0.00 0.00 88 1016.0
20260505030537 65 0 0.0 0.0 0.00 0.00 0.00 87 1016.0
20260505030049 65 0 0.0 0.0 0.00 0.00 0.00 87 1016.0
20260505025535 65 0 0.0 0.0 0.00 0.00 0.00 87 1016.0
20260505025034 65 0 0.0 0.0 0.00 0.00 0.00 87 1015.9
20260505024545 65 0 0.0 0.0 0.00 0.00 0.00 87 1015.8